RH
31 39 35 30 35 45 52 52 53 56 53 53 58 61 69 65 41 30 34 33 31 31 29 27 26 26 27 27 28 27 28 28 27 28 27 24 24 22 20 20 21 20
25 30 33 31 35 40 43 45 48 52 53 52 53 58 67 61 40 32 35 33 34 34 31 30 28 26 27 27 28 28 29 29 28 29 28 26 24 21 20 20 19 17
24 23 24 26 29 30 29 32 36 43 50 51 49 55 61 52 38 36 36 33 35 34 34 33 30 28 27 27 28 28 29 29 30 30 29 28 25 23 22 20 17 15
27 28 26 22 22 23 24 28 31 36 43 44 43 48 51 48 44 41 37 35 36 35 35 36 33 32 30 28 28 28 29 29 29 30 30 29 26 26 25 22 20 15
29 32 32 26 23 22 23 25 29 33 38 41 42 43 44 47 49 47 42 39 37 36 36 37 36 36 34 33 31 29 29 29 29 30 30 29 28 27 25 23 23 18
33 33 32 30 28 26 25 24 26 29 34 39 42 43 44 46 49 52 50 45 40 39 38 37 38 39 39 39 37 34 32 30 29 29 30 30 28 28 28 25 23 18
33 35 35 34 33 31 29 28 26 27 30 36 41 44 45 46 48 52 55 52 48 43 41 39 40 40 42 43 43 41 38 34 31 30 30 31 30 29 29 28 25 22
36 35 34 35 35 36 36 36 34 30 28 31 38 45 47 47 48 52 56 57 55 50 47 44 42 42 44 45 46 46 45 42 37 33 30 31 32 31 30 30 28 26
56 49 44 39 34 32 33 37 39 39 36 33 35 43 48 50 49 51 56 59 60 57 54 51 49 49 48 48 50 50 50 49 44 39 35 31 32 32 31 31 30 28
67 68 67 61 55 49 43 40 40 42 42 40 39 43 48 52 52 51 55 60 63 62 59 57 54 54 54 54 55 55 54 54 50 46 40 35 33 32 31 31 29 28
63 64 65 67 71 69 61 53 46 43 44 44 44 45 47 52 54 54 55 59 62 62 61 59 56 55 57 58 58 60 60 58 54 49 44 38 34 32 32 31 29 26
57 62 70 73 73 70 66 61 55 49 45 43 45 48 49 51 54 55 56 58 62 64 62 61 58 57 57 58 61 64 65 63 58 51 46 40 36 33 31 30 25 22
42 62 85 95 93 88 85 81 77 71 66 60 54 50 50 51 53 56 56 58 61 64 64 63 62 60 58 60 64 66 68 67 60 52 46 40 36 33 32 28 22 17
35 51 70 81 88 94 98 100 97 91 92 89 76 63 58 57 59 60 58 58 61 63 65 65 63 63 61 61 65 68 69 67 59 51 45 39 36 34 32 27 19 14
36 39 43 47 53 64 78 94 102 100 99 100 93 81 72 68 72 72 65 61 63 64 66 67 66 66 64 62 65 68 67 64 57 49 43 39 37 35 30 23 16 12
34 33 33 34 35 37 43 59 84 100 102 103 103 96 88 85 90 88 75 67 67 67 66 68 68 67 65 65 67 68 67 62 54 47 44 41 39 32 25 19 15 14
29 30 30 30 31 32 32 39 66 94 103 104 105 102 99 97 94 88 79 72 70 69 69 70 70 67 66 68 70 69 66 58 51 48 46 43 38 30 24 24 25 24
25 26 26 28 28 31 32 35 56 83 95 99 103 104 102 97 91 88 83 75 72 74 75 74 73 72 72 73 71 67 61 56 52 51 48 42 36 28 26 31 33 30
22 23 25 29 29 30 30 31 46 71 83 84 90 100 104 99 95 94 87 79 76 77 78 79 77 76 76 73 68 63 59 57 56 52 47 40 34 30 28 27 27 28
26 28 29 29 27 28 29 26 35 57 75 79 77 83 96 102 99 96 90 84 81 79 81 82 77 74 76 73 67 62 59 59 57 50 43 38 34 30 25 20 23 29
30 29 28 26 25 27 26 24 28 36 51 68 68 63 78 97 100 98 93 85 82 83 82 79 75 75 77 71 65 65 62 57 51 42 38 37 34 29 24 27 37 40
26 24 24 24 25 26 26 26 29 28 31 50 57 51 63 86 94 95 94 86 83 84 82 80 79 78 76 71 68 65 57 47 41 39 41 42 40 38 39 46 54 53
23 23 24 24 23 30 38 37 34 34 36 46 51 46 56 79 93 96 93 85 81 83 83 82 80 76 74 71 65 56 45 39 41 47 52 53 51 52 56 59 61 60
23 21 22 24 22 32 51 55 47 47 52 56 58 58 66 83 96 98 91 82 81 84 81 77 76 74 70 62 52 45 40 39 44 51 53 55 57 58 61 63 64 64
24 22 22 24 21 27 48 61 57 60 72 80 81 81 84 91 97 97 90 82 83 86 80 75 74 68 57 49 44 41 35 33 40 49 53 55 58 59 61 63 65 66
24 25 25 26 22 25 47 70 72 68 76 88 91 88 88 93 98 97 88 82 85 85 76 70 66 56 47 42 38 33 29 26 30 40 50 57 61 61 61 61 62 63
Wind_Speed
19 17 16 16 15 12 11 10 9 9 7 7 6 6 7 6 5 4 3 3 3 2 2 1 1 2 3 4 4 5 5 5 6 7 8 8 9 9 8 8 7 6
20 19 18 17 16 15 14 13 11 10 9 8 7 7 8 8 6 5 5 5 4 4 3 3 2 1 2 2 3 3 4 5 6 8 9 10 10 10 9 9 8 7
20 20 19 19 18 17 16 16 14 12 11 11 10 9 10 9 7 7 7 7 6 6 6 5 4 3 2 2 3 3 4 5 6 8 9 10 10 11 11 11 10 9
20 18 18 19 20 19 17 17 15 14 14 13 13 12 11 10 9 9 8 9 9 8 7 7 5 4 4 3 3 4 4 5 6 7 8 9 9 10 11 12 11 11
22 20 19 20 20 21 20 19 18 17 16 15 14 14 14 13 11 10 10 10 10 10 10 8 7 5 4 4 4 5 5 6 6 7 8 8 9 10 11 12 12 13
25 22 21 21 20 21 21 20 20 19 18 16 16 16 16 15 14 12 12 11 12 12 11 11 9 7 5 4 4 5 6 7 7 8 9 9 10 11 12 12 13 15
27 25 25 23 22 22 22 21 21 21 20 18 17 18 18 18 17 15 14 13 13 13 13 13 11 9 7 6 5 5 6 7 7 8 8 9 10 11 12 13 14 14
29 28 30 28 25 24 24 23 23 23 22 21 20 19 20 20 19 18 17 16 15 15 15 15 14 12 10 9 8 7 7 7 7 7 8 9 10 11 12 13 14 13
27 27 30 31 31 30 29 27 26 25 25 25 23 21 21 22 22 21 19 18 18 17 17 16 15 14 12 11 11 9 9 9 9 8 9 10 11 11 12 13 14 14
22 22 23 26 29 31 31 31 31 29 28 27 26 25 24 24 25 24 22 21 21 20 19 18 17 16 14 14 13 11 11 11 11 11 11 12 12 13 13 14 14 14
19 21 23 24 26 28 30 33 34 34 32 29 27 29 29 28 28 28 26 25 25 24 22 20 18 18 17 16 15 13 13 14 14 14 14 13 14 14 15 15 14 14
14 19 21 22 25 28 32 34 36 37 38 34 30 30 32 33 33 32 30 29 28 26 24 22 20 19 19 18 17 15 15 15 16 16 16 15 15 15 15 15 14 13
7 11 13 15 18 21 25 27 30 33 35 35 33 33 34 36 36 36 34 32 30 28 26 24 22 22 21 20 18 17 17 18 18 18 18 18 17 17 16 15 14 14
6 8 9 10 11 13 16 17 20 23 24 26 29 31 34 35 36 37 36 34 33 31 29 27 25 24 23 21 19 19 19 19 19 19 19 19 18 18 17 16 16 15
7 9 10 12 12 12 12 12 14 17 18 20 24 27 31 32 32 36 39 37 35 34 32 30 28 26 24 21 20 20 20 20 19 19 19 19 18 17 17 16 16 15
9 11 12 14 16 16 16 14 12 13 14 17 19 20 23 25 26 34 39 36 34 36 36 33 30 27 24 22 21 21 20 20 20 19 18 18 16 15 15 15 16 16
14 14 15 16 17 18 19 18 14 12 11 13 14 15 20 26 29 33 36 33 34 38 37 35 32 28 24 23 22 21 21 20 20 19 18 17 15 14 13 14 14 15
18 18 18 18 19 19 19 19 15 12 11 11 12 13 19 27 30 30 31 32 36 41 39 35 32 27 24 23 22 21 21 20 18 18 17 15 14 13 12 12 13 16
21 21 20 20 20 20 21 21 17 12 11 12 13 12 14 19 24 26 29 33 38 43 41 35 30 26 24 23 22 20 19 17 15 15 15 13 13 14 14 15 16 16
22 21 21 21 21 21 22 23 21 15 11 11 14 15 14 15 19 24 28 33 38 42 39 33 29 26 24 21 18 17 16 14 13 14 14 13 14 15 17 18 18 17
22 23 23 23 23 22 23 24 24 21 17 12 12 16 17 17 19 23 27 32 37 38 36 32 29 25 20 17 15 14 13 12 13 14 14 14 15 16 17 17 16 17
24 25 25 25 24 23 23 24 23 23 21 16 13 15 18 18 20 23 28 32 34 35 33 28 24 19 15 13 12 11 11 12 13 14 14 13 14 15 16 15 15 17
25 26 26 25 24 22 21 21 22 21 19 17 16 16 17 18 19 23 30 35 35 32 26 20 16 14 12 11 10 9 10 10 10 10 10 11 12 14 14 14 15 18
25 25 25 25 24 22 19 19 20 19 16 15 15 14 15 16 19 25 33 37 34 28 21 15 12 11 10 9 8 8 9 9 8 8 9 11 12 14 14 15 16 19
25 25 24 23 23 21 19 19 19 17 14 13 12 13 13 15 21 30 36 35 29 24 19 15 12 9 8 7 7 7 9 9 8 9 10 12 13 14 15 15 16 19
26 24 23 22 22 21 19 18 17 16 15 14 13 13 13 14 23 33 35 30 24 20 16 13 10 8 7 7 7 8 9 10 11 11 12 13 14 15 16 17 17 19
Wind_Direction
201 202 199 195 195 200 202 203 204 206 207 200 201 203 198 210 243 257 251 266 281 292 316 342 12 57 72 75 75 71 58 46 36 30 27 25 23 21 20 17 12 1
203 204 205 202 199 201 200 201 205 210 213 210 206 200 199 216 239 244 245 258 269 276 289 302 315 357 50 57 59 59 43 26 22 19 16 15 14 13 15 16 15 12
205 204 208 208 206 205 202 200 204 209 215 222 221 210 212 228 236 232 235 243 254 263 274 284 296 317 342 4 11 19 20 14 12 10 8 8 5 4 6 6 7 10
209 203 208 211 211 210 206 204 207 211 216 226 233 230 232 239 235 228 230 233 240 250 258 268 279 294 310 324 334 340 347 354 359 1 1 360 357 357 358 359 0 1
213 207 210 210 213 215 215 215 215 216 218 223 233 238 240 242 238 232 231 229 234 241 245 253 261 267 282 302 313 319 325 331 341 348 349 347 347 348 350 352 353 355
219 217 218 217 219 221 221 223 223 223 224 224 231 238 241 243 242 239 236 233 234 238 241 244 247 249 254 271 292 302 309 317 325 334 336 335 335 338 342 346 349 350
229 227 228 228 230 232 232 231 230 230 231 232 236 240 241 243 243 242 240 237 235 235 239 241 242 244 248 256 271 284 297 308 314 319 322 324 326 329 334 339 344 345
243 240 238 237 238 239 240 240 239 238 237 238 240 241 243 244 243 244 242 239 237 235 236 240 242 243 246 253 265 279 295 305 307 306 305 308 313 317 322 327 332 334
250 249 248 249 249 247 247 246 247 246 242 240 240 241 244 245 243 243 243 241 237 236 237 239 242 244 247 252 262 276 293 302 304 301 299 301 304 307 310 315 320 324
250 252 255 259 260 259 257 253 250 249 248 246 244 243 243 245 244 242 242 241 238 236 238 240 242 246 249 255 264 277 288 298 303 302 299 300 300 301 304 308 313 317
249 251 254 257 261 261 259 258 257 255 254 251 248 248 246 244 244 242 238 237 238 238 239 240 244 247 251 256 264 275 284 292 297 299 298 297 297 299 301 305 309 312
242 247 253 257 259 256 255 258 260 259 259 255 249 248 249 247 245 243 239 236 237 238 239 241 242 245 249 254 260 267 276 284 289 292 292 292 293 295 298 302 306 307
266 262 264 262 260 257 255 258 259 259 260 258 251 247 250 253 250 246 239 234 235 237 238 240 241 242 245 250 255 261 269 276 281 284 285 286 288 290 294 300 302 303
301 301 299 286 274 263 257 256 257 257 256 259 259 254 252 256 256 251 241 232 233 236 236 237 238 240 242 245 251 258 264 270 275 277 278 280 282 284 290 296 300 303
302 310 315 314 310 298 281 265 258 256 252 255 261 260 257 256 253 246 237 228 227 229 230 232 234 235 239 244 249 255 261 267 271 272 273 274 278 283 289 296 300 303
325 323 322 321 319 315 308 293 271 260 255 252 253 255 254 248 235 230 229 225 227 229 228 229 231 233 238 242 245 251 258 264 268 269 269 271 277 284 292 298 302 303
331 328 326 323 318 314 311 304 287 268 261 256 250 241 235 234 235 239 238 233 232 233 229 227 230 231 235 239 244 251 257 262 266 267 270 274 279 288 295 298 300 300
326 323 320 317 313 309 306 301 291 276 269 263 249 234 234 244 253 255 249 238 231 227 225 224 226 227 231 239 246 251 256 260 264 268 273 278 284 291 294 291 290 293
322 319 316 312 309 306 302 298 292 280 275 274 266 251 245 258 265 256 246 238 228 222 222 223 224 227 233 241 246 249 254 260 265 270 277 282 286 291 293 292 291 293
321 317 312 308 305 302 299 297 295 286 278 277 280 275 264 264 266 255 243 236 227 223 222 222 223 231 236 239 243 249 258 266 272 278 283 284 286 292 296 296 295 292
318 315 311 307 304 300 297 296 294 291 286 278 278 280 275 270 268 257 243 235 227 223 222 222 225 231 234 235 242 253 264 273 279 284 287 288 290 295 298 297 294 293
313 312 311 307 303 299 297 293 290 289 287 282 275 274 269 265 264 254 240 229 221 217 219 221 222 222 225 232 244 256 268 277 283 288 290 290 292 294 295 292 286 287
309 309 308 307 304 298 292 289 286 282 278 275 274 273 265 259 256 245 230 221 217 215 212 208 207 212 223 236 245 254 267 278 284 286 281 282 287 288 287 285 280 282
307 306 304 304 303 296 285 280 280 273 266 263 263 263 261 255 247 235 224 218 216 211 201 192 195 207 219 229 239 251 265 276 279 276 274 277 283 284 284 284 283 285
305 305 302 299 297 293 282 274 272 265 255 248 243 245 247 243 238 231 222 213 208 204 199 196 197 202 212 221 235 255 270 277 274 273 277 280 283 285 286 285 284 287
302 303 303 298 292 286 277 267 264 259 249 240 236 236 229 224 232 230 217 202 198 198 193 186 184 194 209 221 239 256 267 275 277 278 280 283 286 287 287 287 287 288